Location: Unspecified
(0.0000°N, 0.0000°E)
Time: 23:18:27
(UTC+00:00)

Vanguard 2 - Pass Details

Date: 10 October 2020
Orbit: 554 x 2937 km, 32.9° (Epoch: 28 October)

Event Time Altitude Azimuth Distance (km) Brightness Sun altitude
Rises 16:47:36 0° 204° (SSW) 4,731 12.0 14.7°
Reaches altitude 10° 16:53:37 10° 176° (S) 4,331 11.5 13.2°
Maximum altitude 16:58:11 13° 154° (SSE) 4,507 11.3 12.1°
Drops below altitude 10° 17:03:24 10° 132° (SE) 5,097 11.4 10.8°
Sets 17:12:17 0° 108° (ESE) 6,572 11.7 8.6°
